Погода в Верховье

Россия / Орловская область     52°49′21″N   37°16′04″E
темп.,
°C
ветер,
м/с
пор.,
м/с
влажн.,
%
обл.,
%
осадки,
мм/ч
давл.,
гПа
погр.,
м
6 декабря, пн
пн600:00−3ююв2476100 0.0 1019103
03:00−3ююв2473100 0.0 1020114
06:00−2юв3666100 0.0 1019193
09:00−3юв386397 0.0 1020260
12:00−1юв4954100 0.0 1020430
15:00−1юв5953100 0.0 1019435
18:00−1юв5960100 0.0 1020342
21:00−2юв51173100 0.0 1019389
7 декабря, вт
вт700:00−2юв61396100 0.2 1019437
03:00−1юв71597100 1.8 1017511
06:000ююв81795100 2.1 1014533
09:00+1ююв71697100 3.6 1014518
12:00+2ююв71598100 0.8 1013425
15:00+3ююв61499100 1.9 1012394
18:00+3ююв61599100 1.1 1012382
21:00+3ююв61499100 3.4 1012335
8 декабря, ср
ср800:00+2ююв51394100 1.8 1012332
03:00+2ююв51196100 1.9 1012266
06:00+1ююв4897100 0.0 1013176
09:000юв3797100 0.0 1014131
12:00+2вюв3697100 0.0 1014200
15:00+2в3697100 0.0 1013176
18:00+1в4896100 0.0 1014193
21:00+1в3796100 0.0 1013191
9 декабря, чт
чт900:00+1вюв3798100 0.0 1014173
03:00+1в3598100 0.0 1014136
06:00+1в3698100 0.0 1014180
09:00+1в3797100 0.0 1015191
12:00+2вюв369570 0.0 1015216
15:00+2вюв3697100 0.0 1016199
18:00+2в3498100 1.1 1017137
21:00+2вюв3599100 2.3 1018178
10 декабря, пт
пт1000:00+3юв249997 0.1 1019108
03:00+3вюв2398100 0.1 101964
06:00+3вюв2398100 0.0 101978
09:00+3вюв3597100 0.1 1020134
12:00+3вюв3696100 0.1 1021213
15:00+3вюв3696100 0.1 1021197
18:00+3вюв3796100 0.0 1021210
21:00+2вюв4897100 0.0 1021220